CLUSTER II-FM5 (RUMBA)

Last updated on Jan. 21, 2020, 4:36 a.m. UTC

1 26463U 00045A   20022.35244409 -.00000115  00000-0  00000+0 0  9994
2 26463 134.9416 341.1615 5073961 185.2538 359.0856  0.44221642 22279
UTC
Height (km)
Latitude
Longitude
Inclination
Orbital Period
UTC large
Height (km)
Speed (km/s)
/
Latitude / Longitude
Inclination (degrees)
Orbital Period (minutes)
Azimuth
Elevation
Range (km)
Doppler Factor
iOS Compass Heading
iOS Angle

Next 30 passes for location: Hong Kong

Rise time Rise Azimuth (degrees) Set time Set Azimuth (degrees) Duration Max altitude (degrees)

No matching passes for this satellites